weather.gov     
National Weather Service

Regional Weather Roundup
NWS Homepage
This page is being discontinued on March 12, 2014.
The same data is available at this site. Please update your bookmarks.
Thank you, and we apologize for the inconvenience.
Please send an email to SR-SRH.Webmaster@noaa.gov with any concerns.


Current Version
Previous Version:    01  02  03  04  05  06  07  08  09  10  11  12  13  14  15  16  17  18  19  20  21  22  23  24  25  26  27  
[Printable]
776
ASPQ40 PGUM 262012
RWRPQ
WEATHER ROUNDUP FOR THE MARIANAS AND MICRONESIA
NATIONAL WEATHER SERVICE TIYAN GU
600 AM CHST THU NOV 27 2014

GUZ001>004-262100-
MARIANA ISLANDS-

CITY           SKY/WX    TMP DP  RH WIND       PRES   REMARKS
GUAM AIRPORT   CLEAR     81  73  78 NE13      29.86R
ANDERSEN AFB   PTCLDY    81  73  78 NE22      29.87R
ROTA AIRPORT   NOT AVBL
TINIAN AP      PTCLDY    81  73  78 NE14      29.85
SAIPAN AP      PTCLDY    81  73  78 NE14      29.88R

$$

PMZ161-262100-
REPUBLIC OF PALAU-

CITY           SKY/WX    TMP DP  RH WIND       PRES   REMARKS
KOROR AP       LGT RAIN  79  77  94 CALM      29.77R
KOROR WSO      MOCLDY    79  77  94 CALM      29.76R

$$

PMZ171>174-262100-
FEDERATED STATES OF MICRONESIA-

CITY           SKY/WX    TMP DP  RH WIND       PRES   REMARKS
YAP AIRPORT    MOCLDY    82  77  83 NE10      29.77S HX  91
CHUUK AP       CLOUDY    77  75  94 VRB3      29.74R
POHNPEI AP     CLOUDY    79  77  94 E6        29.73
POHNPEI WSO    CLOUDY    81  77  89 E5        29.77R
KOSRAE AP      LGT RAIN  79  75  89 E15       29.75

$$

PMZ181-262100-
REPUBLIC OF THE MARSHALL ISLANDS-

CITY           SKY/WX    TMP DP  RH WIND       PRES   REMARKS
KWAJALEIN AP   LGT RAIN  79  75  89 NE21G30   29.79R
MAJURO AP      NOT AVBL
MAJURO WSO     NOT AVBL

$$





U.S. Dept. of Commerce
NOAA National Weather Service
1325 East West Highway
Silver Spring, MD 20910
E-mail: w-nws.webmaster@noaa.gov
Page last modified: May 16, 2007
NATIONAL WEATHER SERVICE: for Safety, for Work, for Fun - FOR LIFE